Weather History for Hereford, TX

Change the Weather History Date:

Sunday, February 12, 2012

  Actual Average (KAMA) Record (KAMA)
Temperature  
Mean Temperature 21 °F 40 °F  
Max Temperature 23 °F 53 °F 86 °F (1962)
Min Temperature 19 °F 26 °F -16 °F (1899)
Degree Days  
Heating Degree Days 44 25  
Month to date heating degree days 316  
Since 1 July heating degree days 2901  
Cooling Degree Days 0 0  
Month to date cooling degree days 0  
Year to date cooling degree days 0  
Moisture  
Dew Point 16 °F    
Average Humidity 80    
Maximum Humidity 93    
Minimum Humidity 68    
Precipitation  
Precipitation 0.00 in 0.02 in 0.50 in (1906)
Month to date precipitation 0.26  
Year to date precipitation 0.98  
Snow  
Snow 0.00 in 0.10 in 4.70 in (2013)
Month to date snowfall 1.7  
Since 1 July snowfall 12.8  
Snow Depth -    
Sea Level Pressure  
Sea Level Pressure 30.22 in    
Wind  
Wind Speed 13 mph (South)    
Max Wind Speed 22 mph    
Max Gust Speed 23 mph    
Visibility 8 miles    
Events Snow    
T = Trace of Precipitation, MM = Missing Value Source: NWS Daily Summary

Daily Weather History Graph

Daily Weather History Graph

Search for Another Location

Airport:

Trip Planner

Search our weather history database for the weather conditions in past years. The results will help you decide how hot, cold, wet, or windy it might be!

Date:

Astronomy

Feb. 12, 2012 Rise Set
Actual Time 7:38 AM CST 6:28 PM CST
Civil Twilight 7:12 AM CST 6:54 PM CST
Nautical Twilight 6:42 AM CST 7:24 PM CST
Astronomical Twilight 6:13 AM CST 7:54 PM CST
Moon No Moon Rise 10:14 AM CST (2/12)
Length of Visible Light 11h 42m
Length of Day
10h 50m
Waning Gibbous, 72% of the Moon is Illuminated
Feb 12
Waning Gibbous
Feb 14
Last Quarter
Feb 21
New
Feb 29
First Quarter
Mar 8
Full

Hourly Weather History & Observations

Time (CST) Temp. Windchill Dew Point Humidity Pressure Visibility Wind Dir Wind Speed Gust Speed Precip Events Conditions
12:15 AM 21.2 °F 10.1 °F 12.2 °F 68% 30.43 in 10.0 mi SE 10.4 mph - N/A   Clear
12:35 AM 21.2 °F 10.9 °F 12.2 °F 68% 30.42 in 10.0 mi SE 9.2 mph - N/A   Clear
12:55 AM 21.2 °F 10.1 °F 12.2 °F 68% 30.41 in 10.0 mi SE 10.4 mph - N/A   Clear
1:15 AM 19.4 °F 8.6 °F 12.2 °F 74% 30.40 in 10.0 mi SE 9.2 mph - N/A   Clear
1:35 AM 19.4 °F 7.9 °F 12.2 °F 74% 30.40 in 10.0 mi SE 10.4 mph - N/A   Clear
1:55 AM 19.4 °F 10.4 °F 12.2 °F 74% 30.39 in 10.0 mi ESE 6.9 mph - N/A   Clear
2:15 AM 19.4 °F 10.4 °F 12.2 °F 74% 30.40 in 10.0 mi ESE 6.9 mph - N/A   Mostly Cloudy
2:35 AM 19.4 °F 7.9 °F 12.2 °F 74% 30.38 in 10.0 mi SE 10.4 mph - N/A   Overcast
2:55 AM 19.4 °F 7.2 °F 12.2 °F 74% 30.38 in 10.0 mi SE 11.5 mph - N/A   Overcast
3:15 AM 19.4 °F 6.0 °F 12.2 °F 74% 30.37 in 10.0 mi SSE 13.8 mph - N/A   Overcast
3:35 AM 19.4 °F 7.2 °F 12.2 °F 74% 30.37 in 10.0 mi SSE 11.5 mph - N/A   Overcast
3:55 AM 19.4 °F 7.2 °F 10.4 °F 68% 30.36 in 10.0 mi SSE 11.5 mph - N/A   Overcast
4:15 AM 19.4 °F 7.9 °F 10.4 °F 68% 30.35 in 10.0 mi South 10.4 mph - N/A   Overcast
4:35 AM 19.4 °F 7.9 °F 10.4 °F 68% 30.34 in 10.0 mi SSE 10.4 mph - N/A   Overcast
4:55 AM 19.4 °F 8.6 °F 10.4 °F 68% 30.33 in 10.0 mi South 9.2 mph - N/A   Overcast
5:15 AM 19.4 °F 7.9 °F 12.2 °F 74% 30.32 in 10.0 mi South 10.4 mph - N/A   Overcast
5:35 AM 19.4 °F 7.2 °F 12.2 °F 74% 30.32 in 10.0 mi South 11.5 mph - N/A   Overcast
5:55 AM 21.2 °F 9.5 °F 12.2 °F 68% 30.31 in 10.0 mi South 11.5 mph - N/A   Overcast
6:15 AM 21.2 °F 9.5 °F 12.2 °F 68% 30.31 in 10.0 mi South 11.5 mph - N/A   Overcast
6:35 AM 21.2 °F 9.5 °F 12.2 °F 68% 30.31 in 10.0 mi South 11.5 mph - N/A   Overcast
6:55 AM 21.2 °F 8.3 °F 12.2 °F 68% 30.31 in 10.0 mi South 13.8 mph - N/A   Overcast
7:15 AM 21.2 °F 8.9 °F 12.2 °F 68% 30.29 in 10.0 mi South 12.7 mph - N/A   Overcast
7:35 AM 21.2 °F 9.5 °F 12.2 °F 68% 30.29 in 10.0 mi South 11.5 mph - N/A   Overcast
7:55 AM 21.2 °F 8.9 °F 12.2 °F 68% 30.29 in 10.0 mi South 12.7 mph - N/A   Overcast
8:15 AM 21.2 °F 9.5 °F 12.2 °F 68% 30.29 in 10.0 mi South 11.5 mph - N/A   Overcast
8:35 AM 21.2 °F 8.3 °F 14.0 °F 74% 30.29 in 10.0 mi SSW 13.8 mph - N/A   Overcast
8:55 AM 21.2 °F 8.9 °F 15.8 °F 80% 30.28 in 10.0 mi South 12.7 mph - N/A   Overcast
9:15 AM 21.2 °F 9.5 °F 17.6 °F 86% 30.28 in 10.0 mi South 11.5 mph - N/A   Overcast
9:35 AM 21.2 °F 7.8 °F 17.6 °F 86% 30.28 in 10.0 mi South 15.0 mph - N/A   Overcast
9:55 AM 21.2 °F 8.3 °F 17.6 °F 86% 30.27 in 4.0 mi South 13.8 mph - N/A Snow Light Snow
10:15 AM 21.2 °F 7.3 °F 17.6 °F 86% 30.27 in 4.0 mi South 16.1 mph - N/A Snow Light Snow
10:35 AM 21.2 °F 7.8 °F 17.6 °F 86% 30.26 in 1.5 mi South 15.0 mph - N/A Snow Light Snow
10:55 AM 21.2 °F 7.8 °F 19.4 °F 93% 30.26 in 1.2 mi South 15.0 mph - N/A Snow Light Snow
11:15 AM 23.0 °F 9.6 °F 17.6 °F 80% 30.26 in 1.8 mi SSW 16.1 mph - N/A Snow Light Snow
11:35 AM 21.2 °F 7.3 °F 17.6 °F 86% 30.24 in 2.0 mi SSW 16.1 mph - N/A Snow Light Snow
11:55 AM 21.2 °F 7.8 °F 17.6 °F 86% 30.23 in 2.0 mi South 15.0 mph - N/A Snow Light Snow
12:15 PM 21.2 °F 7.3 °F 17.6 °F 86% 30.22 in 1.5 mi South 16.1 mph - N/A Snow Light Snow
12:35 PM 21.2 °F 6.8 °F 17.6 °F 86% 30.21 in 1.0 mi South 17.3 mph - N/A Snow Light Snow
12:55 PM 21.2 °F 7.3 °F 17.6 °F 86% 30.19 in 1.0 mi South 16.1 mph - N/A Snow Light Snow
1:15 PM 23.0 °F 10.1 °F 17.6 °F 80% 30.17 in 10.0 mi South 15.0 mph - N/A Snow Light Snow
1:35 PM 23.0 °F 9.2 °F 17.6 °F 80% 30.15 in 10.0 mi SSW 17.3 mph 21.9 mph N/A Snow Light Snow
1:55 PM 23.0 °F 9.6 °F 17.6 °F 80% 30.13 in 4.0 mi SSW 16.1 mph - N/A Snow Light Snow
2:15 PM 23.0 °F 8.3 °F 17.6 °F 80% 30.11 in 4.0 mi SSW 19.6 mph - N/A Snow Light Snow
2:35 PM 23.0 °F 10.1 °F 19.4 °F 86% 30.10 in 1.5 mi SSW 15.0 mph - N/A Snow Light Snow
2:55 PM 23.0 °F 10.1 °F 19.4 °F 86% 30.09 in 1.0 mi SSW 15.0 mph - N/A Snow Light Snow
3:15 PM 23.0 °F 9.2 °F 19.4 °F 86% 30.07 in 0.8 mi SSW 17.3 mph - N/A Snow Light Snow
3:35 PM 23.0 °F 8.7 °F 19.4 °F 86% 30.07 in 0.8 mi SSW 18.4 mph - N/A Snow Light Snow
3:55 PM 23.0 °F 8.7 °F 19.4 °F 86% 30.06 in 10.0 mi SSW 18.4 mph - N/A   Overcast
4:15 PM 23.0 °F 9.2 °F 19.4 °F 86% 30.04 in 10.0 mi SSW 17.3 mph - N/A   Overcast
4:35 PM 23.0 °F 8.7 °F 19.4 °F 86% 30.04 in 10.0 mi SSW 18.4 mph 21.9 mph N/A Snow Light Snow
4:55 PM 23.0 °F 8.7 °F 19.4 °F 86% 30.03 in 10.0 mi SSW 18.4 mph 21.9 mph N/A Snow Light Snow
5:15 PM 23.0 °F 8.7 °F 19.4 °F 86% 30.01 in 10.0 mi SSW 18.4 mph - N/A   Overcast
5:35 PM 23.0 °F 8.3 °F 19.4 °F 86% 30.00 in 10.0 mi SSW 19.6 mph - N/A   Overcast
5:55 PM 23.0 °F 9.2 °F 19.4 °F 86% 30.00 in 10.0 mi SSW 17.3 mph - N/A   Overcast
6:15 PM 23.0 °F 8.7 °F 19.4 °F 86% 30.00 in 10.0 mi SSW 18.4 mph 21.9 mph N/A Snow Light Snow
6:35 PM 23.0 °F 8.7 °F 19.4 °F 86% 29.99 in 10.0 mi SSW 18.4 mph - N/A   Overcast
6:55 PM 23.0 °F 7.6 °F 19.4 °F 86% 29.97 in 10.0 mi SSW 21.9 mph - N/A   Overcast
7:15 PM 23.0 °F 8.7 °F 21.2 °F 93% 29.97 in 10.0 mi South 18.4 mph 23.0 mph N/A   Overcast
7:35 PM 23.0 °F 9.2 °F 21.2 °F 93% 29.97 in 10.0 mi South 17.3 mph - N/A   Overcast
7:55 PM 23.0 °F 9.2 °F 21.2 °F 93% 29.98 in 10.0 mi SSW 17.3 mph 23.0 mph N/A   Overcast
8:15 PM 23.0 °F 10.1 °F 21.2 °F 93% 29.98 in 10.0 mi SSW 15.0 mph - N/A   Overcast
8:35 PM 23.0 °F 10.1 °F 21.2 °F 93% 29.98 in 10.0 mi SSW 15.0 mph - N/A   Overcast
8:55 PM 23.0 °F 8.0 °F 21.2 °F 93% 29.98 in 10.0 mi SSW 20.7 mph 27.6 mph N/A   Overcast
9:15 PM 23.0 °F 8.3 °F 21.2 °F 93% 29.96 in 10.0 mi SSW 19.6 mph 24.2 mph N/A   Overcast
9:35 PM 23.0 °F 6.9 °F 21.2 °F 93% 29.95 in 7.0 mi South 24.2 mph - N/A   Overcast
9:55 PM 23.0 °F 8.0 °F 21.2 °F 93% 29.93 in 7.0 mi South 20.7 mph 26.5 mph N/A   Overcast
10:15 PM 23.0 °F 8.7 °F 21.2 °F 93% 29.93 in 3.0 mi SSW 18.4 mph 25.3 mph N/A   Overcast
10:35 PM 23.0 °F 11.1 °F 21.2 °F 93% 29.94 in 1.8 mi SSW 12.7 mph - N/A Snow Light Snow
10:55 PM 24.8 °F 11.1 °F 21.2 °F 86% 29.93 in 3.0 mi SSW 18.4 mph 25.3 mph N/A Snow Light Snow
11:15 PM 24.8 °F 10.3 °F 21.2 °F 86% 29.91 in 3.0 mi SSW 20.7 mph 26.5 mph N/A Snow Light Snow
11:55 PM 24.8 °F 9.0 °F 23.0 °F 93% 29.90 in 3.0 mi SSW 25.3 mph 31.1 mph N/A Snow Light Snow